{"data":{"norad_id":60720,"intl_designator":"2024-152A","name":"STARLINK-11247 [DTC]","alt_names":[],"object_type":"PAYLOAD","status":"ACTIVE","operator":null,"country":"US","launch_date":"2024-08-28","launch_site_code":"AFETR","launch_vehicle":null,"mission":null,"orbit_class":"UNKNOWN","rcs_meters":null,"size_class":null,"mass_kg":null,"dimensions":null,"purposes":["comms"],"wikipedia_slug":null,"has_3d_model":false,"image_url":null,"decayed_at":null,"tle_current":{"epoch":"2026-05-25T02:40:10.908768Z","epoch_age_seconds":65118,"freshness":"FRESH","line1":"1 60720U 24152A   26145.11123737  .00001037  00000+0  13409-4 0  9993","line2":"2 60720  53.1587  99.8429 0000660 105.0167 255.0924 15.69710792100835","mean_motion":15.69710792,"eccentricity":6.6e-5,"inclination_deg":53.1587,"raan_deg":99.8429,"arg_perigee_deg":105.0167,"mean_anomaly_deg":255.0924,"bstar":1.3409e-5,"rev_number":10083,"period_min":91.736643930776,"perigee_km":359.27978516195,"apogee_km":360.16918287784,"semimajor_km":6737.8614840199,"source":"CELESTRAK","updated_at":"2026-05-25T13:38:19.283278Z"}}}